KB9ZI Weather Reports


time (UTC)temp
F
wind
direction
speed
knots
gust
knots
rain 1hr
in
rain 24hr
in
rain mn
in
humidity
%
barometer
mb
20260502212750 67 250 0.0 12.2 0.00 0.00 0.00 37 1012.2
20260502212739 67 271 0.0 12.2 0.00 0.00 0.00 37 1012.2
20260502212552 66 176 0.0 11.3 0.00 0.00 0.00 36 1012.2
20260502212547 67 265 0.0 12.2 0.00 0.00 0.00 36 1012.1
20260502212518 66 230 0.0 11.3 0.00 0.00 0.00 36 1012.2
20260502212226 66 233 0.0 11.3 0.00 0.00 0.00 36 1012.2
20260502211927 66 224 0.0 13.9 0.00 0.00 0.00 37 1012.3
20260502211751 66 214 0.0 16.5 0.00 0.00 0.00 35 1012.4
20260502211725 67 228 0.0 16.5 0.00 0.00 0.00 35 1012.4
20260502211553 66 257 0.0 16.5 0.00 0.00 0.00 39 1012.3
20260502211544 67 220 0.0 16.5 0.00 0.00 0.00 36 1012.4
20260502211512 67 292 0.0 16.5 0.00 0.00 0.00 37 1012.4
20260502211124 66 223 0.0 16.5 0.00 0.00 0.00 37 1012.3
20260502211026 66 203 0.0 15.6 0.00 0.00 0.00 37 1012.4
20260502210732 66 207 0.0 15.6 0.00 0.00 0.00 36 1012.5
20260502210721 66 217 0.0 15.6 0.00 0.00 0.00 35 1012.5
20260502210528 67 226 0.0 4.3 0.00 0.00 0.00 37 1012.6
20260502210524 67 269 0.0 12.2 0.00 0.00 0.00 35 1012.5
20260502210455 67 254 0.0 4.3 0.00 0.00 0.00 36 1012.6
20260502210123 67 226 0.0 4.3 0.00 0.00 0.00 37 1012.6
20260502205906 67 227 0.0 3.5 0.00 0.00 0.00 37 1012.6
20260502205706 65 261 0.0 10.4 0.00 0.00 0.00 35 1012.6
20260502205551 65 261 0.0 10.4 0.00 0.00 0.00 35 1012.8
20260502205517 65 261 0.0 11.3 0.00 0.00 0.00 35 1012.8
20260502205511 65 261 0.0 10.4 0.00 0.00 0.00 35 1012.7
20260502205034 65 261 0.0 11.3 0.00 0.00 0.00 35 1012.8
20260502204806 65 259 0.0 11.3 0.00 0.00 0.00 35 1012.9
20260502204720 65 243 0.0 12.2 0.00 0.00 0.00 36 1012.9
20260502204607 65 203 0.0 12.2 0.00 0.00 0.00 40 1012.9
20260502204515 66 258 0.0 12.2 0.00 0.00 0.00 40 1012.9
20260502204458 66 193 0.0 12.2 0.00 0.00 0.00 36 1012.9
20260502204203 66 254 0.0 12.2 0.00 0.00 0.00 40 1012.9
20260502204006 65 269 0.0 12.2 0.00 0.00 0.00 37 1013.0
20260502203801 65 233 0.0 12.2 0.00 0.00 0.00 36 1013.1
20260502203712 65 209 0.0 13.9 0.00 0.00 0.00 36 1013.1
20260502203601 65 223 0.0 13.9 0.00 0.00 0.00 35 1013.0
20260502203508 66 231 0.0 13.9 0.00 0.00 0.00 36 1013.1
20260502203502 66 237 0.0 13.9 0.00 0.00 0.00 36 1013.1
20260502203448 66 271 0.0 13.9 0.00 0.00 0.00 36 1013.0
20260502203001 66 269 0.0 13.9 0.00 0.00 0.00 36 1013.1
20260502202801 66 228 0.0 13.9 0.00 0.00 0.00 37 1013.1
20260502202708 66 197 0.0 8.7 0.00 0.00 0.00 40 1013.1
20260502202602 65 221 0.0 8.7 0.00 0.00 0.00 37 1013.2
20260502202458 65 220 0.0 12.2 0.00 0.00 0.00 39 1013.3
20260502202445 65 243 0.0 12.2 0.00 0.00 0.00 36 1013.3
20260502202139 65 220 0.0 12.2 0.00 0.00 0.00 39 1013.4
20260502202040 65 244 0.0 12.2 0.00 0.00 0.00 36 1013.4
20260502201839 65 235 0.0 12.2 0.00 0.00 0.00 38 1013.4
20260502201709 65 223 0.0 12.2 0.00 0.00 0.00 38 1013.4
20260502201530 65 200 0.0 13.9 0.00 0.00 0.00 38 1013.4
20260502201331 65 219 0.0 13.9 0.00 0.00 0.00 37 1013.5
20260502201206 65 219 0.0 13.9 0.00 0.00 0.00 37 1013.6
20260502201109 65 245 0.0 13.9 0.00 0.00 0.00 38 1013.7
20260502200906 65 255 0.0 13.9 0.00 0.00 0.00 37 1013.6
20260502200706 65 247 0.0 13.9 0.00 0.00 0.00 39 1013.7
20260502200506 65 244 0.0 9.6 0.00 0.00 0.00 35 1013.7
20260502200306 65 199 0.0 9.6 0.00 0.00 0.00 39 1013.9
20260502200216 65 254 0.0 11.3 0.00 0.00 0.00 37 1013.8
20260502200201 65 243 0.0 11.3 0.00 0.00 0.00 39 1013.8
20260502195855 64 228 0.0 12.2 0.00 0.00 0.00 38 1013.8
20260502195700 64 302 0.0 12.2 0.00 0.00 0.00 36 1014.0
20260502195632 64 217 0.0 12.2 0.00 0.00 0.00 36 1014.0
20260502195529 64 233 0.0 12.2 0.00 0.00 0.00 38 1013.9
20260502195232 64 199 0.0 12.2 0.00 0.00 0.00 37 1013.9
20260502195201 64 220 0.0 12.2 0.00 0.00 0.00 39 1014.0
20260502195031 64 202 0.0 12.2 0.00 0.00 0.00 40 1014.0
20260502194835 63 213 0.0 10.4 0.00 0.00 0.00 39 1014.0
20260502194702 63 203 0.0 10.4 0.00 0.00 0.00 40 1014.0
20260502194635 63 195 0.0 8.7 0.00 0.00 0.00 40 1014.0
20260502194412 63 230 0.0 4.3 0.00 0.00 0.00 39 1014.0
20260502194221 63 262 0.0 9.6 0.00 0.00 0.00 38 1014.3
20260502194206 63 262 0.0 9.6 0.00 0.00 0.00 38 1014.2
20260502194007 63 262 0.0 11.3 0.00 0.00 0.00 38 1014.2
20260502193906 63 262 0.0 11.3 0.00 0.00 0.00 38 1014.2
20260502193700 63 262 0.0 11.3 0.00 0.00 0.00 38 1014.3
20260502193612 63 262 0.0 11.3 0.00 0.00 0.00 38 1014.2
20260502193444 63 259 0.0 11.3 0.00 0.00 0.00 37 1014.4
20260502193437 63 262 0.0 11.3 0.00 0.00 0.00 38 1014.3
20260502193411 63 247 0.0 11.3 0.00 0.00 0.00 37 1014.4
20260502193004 63 227 0.0 13.0 0.00 0.00 0.00 39 1014.3
20260502192758 63 289 0.0 13.9 0.00 0.00 0.00 39 1014.4
20260502192654 63 189 0.0 13.9 0.00 0.00 0.00 40 1014.4
20260502192557 63 230 0.0 13.9 0.00 0.00 0.00 37 1014.4
20260502192445 62 254 0.0 13.9 0.00 0.00 0.00 39 1014.5
20260502192435 63 231 0.0 13.9 0.00 0.00 0.00 42 1014.5
20260502191955 62 195 0.0 13.9 0.00 0.00 0.00 39 1014.5
20260502191755 62 230 0.0 13.0 0.00 0.00 0.00 37 1014.6
20260502191653 62 207 0.0 13.0 0.00 0.00 0.00 38 1014.7
20260502191556 62 257 0.0 13.0 0.00 0.00 0.00 38 1014.7
20260502191450 62 240 0.0 13.0 0.00 0.00 0.00 36 1015.0
20260502191439 62 233 0.0 13.0 0.00 0.00 0.00 38 1014.8
20260502191408 62 240 0.0 13.0 0.00 0.00 0.00 36 1015.0
20260502190955 62 221 0.0 6.1 0.00 0.00 0.00 41 1015.0
20260502190849 62 217 0.0 7.8 0.00 0.00 0.00 37 1014.8
20260502190655 62 227 0.0 7.8 0.00 0.00 0.00 41 1014.8
20260502190555 62 245 0.0 7.8 0.00 0.00 0.00 37 1015.1
20260502190455 60 276 0.0 9.6 0.00 0.00 0.00 39 1015.1
20260502190439 62 203 0.0 7.8 0.00 0.00 0.00 40 1015.0
20260502190408 60 276 0.0 9.6 0.00 0.00 0.00 39 1015.1
20260502185956 60 226 0.0 10.4 0.00 0.00 0.00 40 1015.1
20260502185757 60 258 0.0 10.4 0.00 0.00 0.00 38 1015.1
20260502185653 60 258 0.0 10.4 0.00 0.00 0.00 38 1015.1
20260502185555 61 250 0.0 10.4 0.00 0.00 0.00 38 1015.1
20260502185356 61 223 0.0 10.4 0.00 0.00 0.00 38 1015.1
20260502185300 61 192 0.0 10.4 0.00 0.00 0.00 39 1015.1
20260502185155 61 192 0.0 10.4 0.00 0.00 0.00 39 1015.1
20260502184955 61 255 0.0 10.4 0.00 0.00 0.00 39 1015.2
20260502184755 61 248 0.0 10.4 0.00 0.00 0.00 42 1015.3
20260502184654 61 248 0.0 13.9 0.00 0.00 0.00 42 1015.3
20260502184555 61 221 0.0 13.9 0.00 0.00 0.00 41 1015.3
20260502184355 60 235 0.0 13.9 0.00 0.00 0.00 41 1015.3
20260502184157 60 254 0.0 13.9 0.00 0.00 0.00 39 1015.4
20260502183957 60 219 0.0 13.9 0.00 0.00 0.00 39 1015.5
20260502183755 60 244 0.0 13.9 0.00 0.00 0.00 39 1015.6
20260502183703 61 199 0.0 13.9 0.00 0.00 0.00 40 1015.5
20260502183653 61 220 0.0 13.9 0.00 0.00 0.00 37 1015.6
20260502183355 61 202 0.0 11.3 0.00 0.00 0.00 40 1015.7
20260502183157 60 259 0.0 9.6 0.00 0.00 0.00 39 1015.6
20260502182956 60 259 0.0 9.6 0.00 0.00 0.00 39 1015.7
20260502182732 60 233 0.0 10.4 0.00 0.00 0.00 40 1015.7
20260502182653 60 220 0.0 10.4 0.00 0.00 0.00 40 1015.7
20260502182517 60 175 0.0 13.0 0.00 0.00 0.00 40 1015.7
20260502182415 60 226 0.0 13.0 0.00 0.00 0.00 39 1015.8
20260502182155 60 219 0.0 13.0 0.00 0.00 0.00 40 1015.8
20260502182110 60 248 0.0 13.0 0.00 0.00 0.00 39 1015.8
20260502181911 60 233 0.0 13.0 0.00 0.00 0.00 39 1015.9
20260502181709 60 185 0.0 13.0 0.00 0.00 0.00 40 1015.8
20260502181655 60 224 0.0 13.0 0.00 0.00 0.00 42 1015.8
20260502181509 60 228 0.0 9.6 0.00 0.00 0.00 40 1015.8
20260502181308 60 271 0.0 9.6 0.00 0.00 0.00 41 1015.9
20260502181155 60 262 0.0 9.6 0.00 0.00 0.00 39 1016.0
20260502181110 60 251 0.0 9.6 0.00 0.00 0.00 39 1015.9
20260502180905 60 182 0.0 9.6 0.00 0.00 0.00 39 1016.0
20260502180811 60 279 0.0 9.6 0.00 0.00 0.00 42 1016.0
20260502180656 60 279 0.0 9.6 0.00 0.00 0.00 42 1016.0
20260502180456 60 289 0.0 9.6 0.00 0.00 0.00 42 1016.0
20260502180256 59 185 0.0 10.4 0.00 0.00 0.00 38 1016.1
20260502180150 60 216 0.0 10.4 0.00 0.00 0.00 39 1016.2
20260502170457 58 204 0.0 3.5 0.00 0.00 0.00 42 1017.0
20260502170131 58 265 0.0 3.5 0.00 0.00 0.00 42 1017.1
20260502164339 56 227 0.0 10.4 0.00 0.00 0.00 42 1017.3
20260502163928 56 227 0.0 10.4 0.00 0.00 0.00 43 1017.4
20260502163728 56 250 0.0 10.4 0.00 0.00 0.00 46 1017.3
20260502163625 56 255 0.0 10.4 0.00 0.00 0.00 43 1017.3
20260502163527 56 212 0.0 10.4 0.00 0.00 0.00 42 1017.4
20260502163411 56 244 0.0 8.7 0.00 0.00 0.00 42 1017.4
20260502163400 57 244 0.0 8.7 0.00 0.00 0.00 41 1017.4
20260502162928 56 227 0.0 8.7 0.00 0.00 0.00 42 1017.5
20260502162726 57 292 0.0 8.7 0.00 0.00 0.00 49 1017.5
20260502162625 56 228 0.0 8.7 0.00 0.00 0.00 45 1017.5
20260502162528 56 227 0.0 8.7 0.00 0.00 0.00 47 1017.6
20260502162428 56 228 0.0 13.0 0.00 0.00 0.00 44 1017.7
20260502162407 56 300 0.0 13.0 0.00 0.00 0.00 44 1017.6
20260502162338 56 228 0.0 13.0 0.00 0.00 0.00 44 1017.7
20260502161928 56 252 0.0 13.0 0.00 0.00 0.00 44 1017.6
20260502161726 55 223 0.0 13.0 0.00 0.00 0.00 44 1017.6
20260502161626 55 195 0.0 13.0 0.00 0.00 0.00 44 1017.7
20260502161527 55 227 0.0 13.0 0.00 0.00 0.00 43 1017.7
20260502161507 56 204 0.0 8.7 0.00 0.00 0.00 44 1017.6
20260502161427 56 230 0.0 10.4 0.00 0.00 0.00 44 1017.7
20260502161340 56 230 0.0 10.4 0.00 0.00 0.00 44 1017.7
20260502160928 56 243 0.0 10.4 0.00 0.00 0.00 44 1017.7
20260502160726 56 261 0.0 10.4 0.00 0.00 0.00 44 1017.7
20260502160627 55 247 0.0 10.4 0.00 0.00 0.00 43 1017.7
20260502160527 55 247 0.0 10.4 0.00 0.00 0.00 43 1017.8
20260502160340 55 227 0.0 13.9 0.00 0.00 0.00 46 1017.9
20260502160333 55 219 0.0 13.9 0.00 0.00 0.00 45 1017.8
20260502160258 55 299 0.0 13.9 0.00 0.00 0.00 44 1017.8
20260502152328 54 207 0.0 10.4 0.00 0.00 0.00 47 1018.1
20260502152128 54 207 0.0 10.4 0.00 0.00 0.00 47 1018.1
20260502151929 54 227 0.0 10.4 0.00 0.00 0.00 47 1018.1
20260502151920 54 248 0.0 7.8 0.00 0.00 0.00 47 1018.1
20260502151852 54 272 0.0 7.8 0.00 0.00 0.00 47 1018.1
20260502151526 54 268 0.0 7.8 0.00 0.00 0.00 48 1018.1
20260502151339 55 285 0.0 7.8 0.00 0.00 0.00 48 1018.2
20260502151229 54 252 0.0 5.2 0.00 0.00 0.00 51 1018.1
20260502151128 54 252 0.0 5.2 0.00 0.00 0.00 51 1018.1
20260502150928 54 252 0.0 5.2 0.00 0.00 0.00 51 1018.1
20260502150854 54 217 0.0 7.8 0.00 0.00 0.00 52 1018.2
20260502150840 54 268 0.0 5.2 0.00 0.00 0.00 51 1018.1
20260502150525 54 214 0.0 7.8 0.00 0.00 0.00 52 1018.2
20260502150326 54 227 0.0 7.8 0.00 0.00 0.00 53 1018.2
20260502150127 54 266 0.0 7.8 0.00 0.00 0.00 52 1018.2
20260502150104 53 264 0.0 7.8 0.00 0.00 0.00 52 1018.2
20260502140117 49 254 0.0 6.1 0.00 0.00 0.00 60 1018.6
20260502130412 43 254 0.0 3.5 0.00 0.00 0.00 69 1018.7
20260502130211 43 228 0.0 4.3 0.00 0.00 0.00 69 1018.8
20260502123812 41 281 0.0 6.1 0.00 0.00 0.00 69 1018.8
20260502123806 41 241 0.0 5.2 0.00 0.00 0.00 69 1018.7
20260502123739 41 281 0.0 6.1 0.00 0.00 0.00 69 1018.8
20260502123446 41 257 0.0 6.1 0.00 0.00 0.00 70 1018.7
20260502123305 40 258 0.0 6.1 0.00 0.00 0.00 70 1018.7
20260502123246 40 214 0.0 6.1 0.00 0.00 0.00 70 1018.7
20260502122949 40 238 0.0 6.1 0.00 0.00 0.00 70 1018.7
20260502122750 40 245 0.0 6.1 0.00 0.00 0.00 70 1018.7
20260502122547 40 230 0.0 4.3 0.00 0.00 0.00 71 1018.6
20260502122509 40 230 0.0 4.3 0.00 0.00 0.00 71 1018.6
20260502122341 40 224 0.0 4.3 0.00 0.00 0.00 70 1018.7
20260502122305 40 258 0.0 4.3 0.00 0.00 0.00 70 1018.6
20260502122244 40 224 0.0 4.3 0.00 0.00 0.00 71 1018.7
20260502121941 40 258 0.0 4.3 0.00 0.00 0.00 70 1018.6
20260502121742 40 258 0.0 4.3 0.00 0.00 0.00 70 1018.7
20260502121542 40 255 0.0 4.3 0.00 0.00 0.00 71 1018.6
20260502121508 40 250 0.0 3.5 0.00 0.00 0.00 71 1018.6
20260502121440 40 233 0.0 4.3 0.00 0.00 0.00 71 1018.6
20260502121308 39 223 0.0 4.3 0.00 0.00 0.00 71 1018.7
20260502121243 39 244 0.0 4.3 0.00 0.00 0.00 71 1018.6
20260502120933 39 223 0.0 4.3 0.00 0.00 0.00 71 1018.7
20260502120733 39 206 0.0 4.3 0.00 0.00 0.00 71 1018.6
20260502120537 39 185 0.0 4.3 0.00 0.00 0.00 71 1018.6
20260502120507 39 171 0.0 4.3 0.00 0.00 0.00 71 1018.6
20260502120335 39 207 0.0 3.5 0.00 0.00 0.00 72 1018.6
20260502120304 38 252 0.0 3.5 0.00 0.00 0.00 72 1018.6
20260502120242 39 241 0.0 3.5 0.00 0.00 0.00 72 1018.7
20260502115810 38 252 0.0 3.5 0.00 0.00 0.00 72 1018.7
20260502115511 38 230 0.0 3.5 0.00 0.00 0.00 72 1018.6
20260502115312 38 230 0.0 3.5 0.00 0.00 0.00 72 1018.6
20260502115111 38 234 0.0 1.7 0.00 0.00 0.00 72 1018.6
20260502115014 38 234 0.0 1.7 0.00 0.00 0.00 72 1018.4
20260502114911 38 234 0.0 1.7 0.00 0.00 0.00 72 1018.4
20260502114711 38 234 0.0 1.7 0.00 0.00 0.00 71 1018.6
20260502114514 38 234 0.0 4.3 0.00 0.00 0.00 72 1018.4
20260502114312 38 234 0.0 4.3 0.00 0.00 0.00 72 1018.4
20260502114112 38 234 0.0 4.3 0.00 0.00 0.00 72 1018.4
20260502114019 38 234 0.0 4.3 0.00 0.00 0.00 72 1018.4
20260502114010 38 234 0.0 4.3 0.00 0.00 0.00 72 1018.3
20260502113633 38 234 0.0 4.3 0.00 0.00 0.00 72 1018.4
20260502113511 38 238 0.0 3.5 0.00 0.00 0.00 72 1018.4
20260502113437 38 238 0.0 3.5 0.00 0.00 0.00 72 1018.4
20260502113232 38 243 0.0 2.6 0.00 0.00 0.00 72 1018.3
20260502113007 38 243 0.0 2.6 0.00 0.00 0.00 72 1018.3
20260502112835 38 243 0.0 2.6 0.00 0.00 0.00 72 1018.3
20260502112635 38 244 0.0 2.6 0.00 0.00 0.00 72 1018.3
20260502112507 38 244 0.0 1.7 0.00 0.00 0.00 72 1018.3
20260502112418 38 244 0.0 1.7 0.00 0.00 0.00 72 1018.3
20260502112308 38 244 0.0 1.7 0.00 0.00 0.00 72 1018.3
20260502112009 38 244 0.0 2.6 0.00 0.00 0.00 72 1018.3
20260502111808 38 244 0.0 2.6 0.00 0.00 0.00 72 1018.3
20260502111611 38 244 0.0 2.6 0.00 0.00 0.00 72 1018.3
20260502111511 38 244 0.0 2.6 0.00 0.00 0.00 72 1018.2
20260502111412 38 243 0.0 2.6 0.00 0.00 0.00 72 1018.3
20260502111211 38 243 0.0 3.5 0.00 0.00 0.00 71 1018.3
20260502111011 38 243 0.0 3.5 0.00 0.00 0.00 71 1018.3
20260502110811 38 243 0.0 3.5 0.00 0.00 0.00 71 1018.3
20260502110711 38 243 0.0 3.5 0.00 0.00 0.00 71 1018.4
20260502110510 38 243 0.0 3.5 0.00 0.00 0.00 71 1018.4
20260502110412 38 243 0.0 3.5 0.00 0.00 0.00 71 1018.3
20260502110302 38 243 0.0 2.6 0.00 0.00 0.00 70 1018.2
20260502110253 38 243 0.0 2.6 0.00 0.00 0.00 71 1018.3
20260502110224 38 243 0.0 2.6 0.00 0.00 0.00 70 1018.2
20260502105811 38 243 0.0 2.6 0.00 0.00 0.00 71 1018.3
20260502105611 38 243 0.0 2.6 0.00 0.00 0.00 71 1018.3
20260502105510 38 243 0.0 2.6 0.00 0.00 0.00 71 1018.3
20260502105411 38 243 0.0 2.6 0.00 0.00 0.00 71 1018.4
20260502105350 38 243 0.0 2.6 0.00 0.00 0.00 70 1018.2
20260502105257 38 243 0.0 2.6 0.00 0.00 0.00 70 1018.3
20260502105222 38 243 0.0 2.6 0.00 0.00 0.00 70 1018.3
20260502104810 38 243 0.0 2.6 0.00 0.00 0.00 70 1018.3
20260502104609 38 243 0.0 2.6 0.00 0.00 0.00 70 1018.3
20260502104508 38 243 0.0 2.6 0.00 0.00 0.00 70 1018.3
20260502104410 38 243 0.0 2.6 0.00 0.00 0.00 70 1018.3
20260502104300 38 228 0.0 2.6 0.00 0.00 0.00 70 1018.3
20260502104251 38 243 0.0 2.6 0.00 0.00 0.00 70 1018.4
20260502104222 38 228 0.0 2.6 0.00 0.00 0.00 70 1018.3
20260502103811 38 230 0.0 2.6 0.00 0.00 0.00 70 1018.4
20260502103711 38 230 0.0 2.6 0.00 0.00 0.00 70 1018.3
20260502103510 38 230 0.0 2.6 0.00 0.00 0.00 70 1018.2
20260502103411 38 230 0.0 2.6 0.00 0.00 0.00 70 1018.3
20260502103211 38 230 0.0 2.6 0.00 0.00 0.00 70 1018.3
20260502103011 38 224 0.0 2.6 0.00 0.00 0.00 69 1018.3
20260502102812 39 224 0.0 2.6 0.00 0.00 0.00 69 1018.3
20260502102611 39 224 0.0 3.5 0.00 0.00 0.00 69 1018.3
20260502102511 39 224 0.0 3.5 0.00 0.00 0.00 69 1018.3
20260502102411 39 224 0.0 3.5 0.00 0.00 0.00 69 1018.3
20260502102305 39 224 0.0 3.5 0.00 0.00 0.00 69 1018.3
20260502102247 39 224 0.0 3.5 0.00 0.00 0.00 69 1018.3
20260502101915 39 224 0.0 2.6 0.00 0.00 0.00 69 1018.3
20260502101608 39 221 0.0 3.5 0.00 0.00 0.00 68 1018.3
20260502101506 39 221 0.0 3.5 0.00 0.00 0.00 68 1018.3
20260502101358 39 221 0.0 3.5 0.00 0.00 0.00 68 1018.3
20260502101240 39 221 0.0 3.5 0.00 0.00 0.00 68 1018.3
20260502101232 39 221 0.0 3.5 0.00 0.00 0.00 68 1018.3
20260502100935 39 221 0.0 3.5 0.00 0.00 0.00 68 1018.3
20260502100704 39 221 0.0 1.7 0.00 0.00 0.00 68 1018.3
20260502100502 39 221 0.0 2.6 0.00 0.00 0.00 68 1018.3
20260502100326 39 221 0.0 2.6 0.00 0.00 0.00 68 1018.3
20260502100306 39 221 0.0 2.6 0.00 0.00 0.00 68 1018.3
20260502100244 39 221 0.0 2.6 0.00 0.00 0.00 68 1018.3
20260502091439 39 240 0.0 2.6 0.00 0.00 0.00 68 1018.2
20260502091356 39 240 0.0 2.6 0.00 0.00 0.00 68 1018.2
20260502091243 39 240 0.0 1.7 0.00 0.00 0.00 68 1018.3
20260502091227 39 240 0.0 2.6 0.00 0.00 0.00 69 1018.2
20260502091158 39 240 0.0 1.7 0.00 0.00 0.00 68 1018.2
20260502090755 39 240 0.0 1.7 0.00 0.00 0.00 67 1018.2
20260502090601 39 240 0.0 1.7 0.00 0.00 0.00 67 1018.2
20260502090439 39 240 0.0 1.7 0.00 0.00 0.00 67 1018.2
20260502090338 39 240 0.0 1.7 0.00 0.00 0.00 67 1018.2
20260502090227 40 240 0.0 1.7 0.00 0.00 0.00 65 1018.2
20260502090214 40 240 0.0 1.7 0.00 0.00 0.00 65 1018.2
20260502071516 41 247 0.0 1.7 0.00 0.00 0.00 63 1018.4
20260502071304 40 247 0.0 1.7 0.00 0.00 0.00 64 1018.6
20260502071204 40 247 0.0 1.7 0.00 0.00 0.00 64 1018.4
20260502071057 40 247 0.0 1.7 0.00 0.00 0.00 64 1018.4
20260502071033 40 247 0.0 1.7 0.00 0.00 0.00 64 1018.4
20260502070702 40 247 0.0 1.7 0.00 0.00 0.00 64 1018.4
20260502070511 40 247 0.0 1.7 0.00 0.00 0.00 64 1018.4
20260502070307 40 247 0.0 1.7 0.00 0.00 0.00 65 1018.6
20260502070055 40 247 0.0 1.7 0.00 0.00 0.00 65 1018.6
20260502065848 40 247 0.0 1.7 0.00 0.00 0.00 65 1018.6
20260502065730 40 247 0.0 1.7 0.00 0.00 0.00 66 1018.4
20260502065647 40 247 0.0 1.7 0.00 0.00 0.00 66 1018.6
20260502065449 40 247 0.0 1.7 0.00 0.00 0.00 67 1018.6
20260502065249 40 247 0.0 1.7 0.00 0.00 0.00 67 1018.6
20260502065232 40 247 0.0 1.7 0.00 0.00 0.00 68 1018.6
20260502065048 39 247 0.0 1.7 0.00 0.00 0.00 68 1018.6
20260502064843 40 247 0.0 1.7 0.00 0.00 0.00 70 1018.6
20260502064733 40 247 0.0 1.7 0.00 0.00 0.00 69 1018.6
20260502064646 40 247 0.0 1.7 0.00 0.00 0.00 69 1018.7
20260502064545 40 247 0.0 1.7 0.00 0.00 0.00 68 1018.7
20260502064230 40 247 0.0 0.0 0.00 0.00 0.00 68 1018.6
20260502064037 39 247 0.0 0.0 0.00 0.00 0.00 68 1018.7
20260502063836 40 247 0.0 0.0 0.00 0.00 0.00 68 1018.7
20260502063728 40 247 0.0 0.0 0.00 0.00 0.00 68 1018.7
20260502063637 40 247 0.0 0.0 0.00 0.00 0.00 68 1018.8
20260502063435 40 247 0.0 0.0 0.00 0.00 0.00 68 1018.7
20260502063224 40 247 0.0 0.0 0.00 0.00 0.00 68 1018.7
20260502063030 40 247 0.0 0.0 0.00 0.00 0.00 68 1018.7
20260502062928 39 247 0.0 0.0 0.00 0.00 0.00 68 1018.8
20260502062716 39 247 0.0 0.0 0.00 0.00 0.00 69 1018.7
20260502062631 39 247 0.0 0.0 0.00 0.00 0.00 69 1018.7
20260502062439 39 247 0.0 0.0 0.00 0.00 0.00 72 1018.7
20260502062209 39 247 0.0 0.0 0.00 0.00 0.00 72 1018.7
20260502062035 39 247 0.0 0.0 0.00 0.00 0.00 72 1018.7
20260502061834 39 247 0.0 0.0 0.00 0.00 0.00 72 1018.7
20260502061709 39 247 0.0 0.0 0.00 0.00 0.00 72 1018.7
20260502061628 39 247 0.0 0.0 0.00 0.00 0.00 72 1018.8
20260502061429 39 247 0.0 0.0 0.00 0.00 0.00 72 1018.8
20260502061209 39 247 0.0 0.0 0.00 0.00 0.00 73 1018.7
20260502061028 39 247 0.0 0.0 0.00 0.00 0.00 73 1018.7
20260502060827 38 247 0.0 0.0 0.00 0.00 0.00 73 1018.8
20260502060722 38 247 0.0 0.0 0.00 0.00 0.00 73 1018.7
20260502060708 38 247 0.0 0.0 0.00 0.00 0.00 73 1018.7
20260502060428 38 247 0.0 0.0 0.00 0.00 0.00 74 1018.8
20260502060207 38 247 0.0 0.0 0.00 0.00 0.00 74 1018.7
20260502060020 38 247 0.0 0.0 0.00 0.00 0.00 74 1018.8
20260502055817 38 247 0.0 0.0 0.00 0.00 0.00 73 1018.8
20260502055706 38 247 0.0 0.0 0.00 0.00 0.00 73 1018.8
20260502055617 39 247 0.0 0.0 0.00 0.00 0.00 73 1018.8
20260502055418 39 247 0.0 0.0 0.00 0.00 0.00 73 1018.8
20260502055205 39 247 0.0 0.0 0.00 0.00 0.00 72 1018.7
20260502055110 39 247 0.0 0.0 0.00 0.00 0.00 72 1018.7
20260502054814 39 247 0.0 0.0 0.00 0.00 0.00 72 1018.7
20260502054707 39 247 0.0 0.0 0.00 0.00 0.00 72 1018.7
20260502054614 39 247 0.0 0.0 0.00 0.00 0.00 72 1018.7
20260502054506 39 247 0.0 0.0 0.00 0.00 0.00 71 1018.8
20260502054449 39 247 0.0 0.0 0.00 0.00 0.00 72 1018.7
20260502054418 39 247 0.0 0.0 0.00 0.00 0.00 71 1018.8
20260502054010 39 247 0.0 0.0 0.00 0.00 0.00 71 1018.7
20260502053810 39 247 0.0 0.0 0.00 0.00 0.00 71 1018.8
20260502053702 39 247 0.0 0.0 0.00 0.00 0.00 71 1018.9
20260502053610 39 247 0.0 0.0 0.00 0.00 0.00 71 1018.9
20260502053509 39 247 0.0 0.0 0.00 0.00 0.00 71 1018.8
20260502053203 39 247 0.0 0.0 0.00 0.00 0.00 70 1018.7
20260502053010 40 247 0.0 0.0 0.00 0.00 0.00 70 1018.8
20260502052810 40 247 0.0 0.0 0.00 0.00 0.00 70 1018.7
20260502052707 40 247 0.0 0.0 0.00 0.00 0.00 70 1018.7
20260502052703 40 247 0.0 0.0 0.00 0.00 0.00 70 1018.7
20260502052408 40 247 0.0 0.0 0.00 0.00 0.00 70 1018.7
20260502052203 40 247 0.0 0.0 0.00 0.00 0.00 70 1018.7
20260502052006 40 247 0.0 0.0 0.00 0.00 0.00 69 1018.7
20260502051806 40 247 0.0 0.0 0.00 0.00 0.00 68 1018.8
20260502051703 40 247 0.0 0.0 0.00 0.00 0.00 68 1018.9
20260502051607 40 247 0.0 0.0 0.00 0.00 0.00 68 1018.8
20260502051409 40 247 0.0 0.0 0.00 0.00 0.00 67 1018.8
20260502051207 40 247 0.0 0.0 0.00 0.00 0.00 67 1018.7
20260502051036 40 247 0.0 0.0 0.00 0.00 0.00 67 1018.8
20260502050735 40 247 0.0 0.0 0.00 0.00 0.00 67 1018.8
20260502050630 40 247 0.0 0.0 0.00 0.00 0.00 67 1018.7
20260502050534 40 247 0.0 0.0 0.00 0.00 0.00 67 1018.7
20260502050334 40 247 0.0 0.0 0.00 0.00 0.00 67 1018.8
20260502050136 40 247 0.0 0.0 0.00 0.00 0.00 66 1018.7
20260502045935 40 247 0.0 0.0 0.00 0.00 0.00 66 1018.7
20260502045735 40 247 0.0 0.0 0.00 0.00 0.00 66 1018.7
20260502045634 40 247 0.0 0.0 0.00 0.00 0.00 66 1018.6
20260502045535 40 247 0.0 0.0 0.00 0.00 0.00 66 1018.6
20260502045455 40 247 0.0 0.0 0.00 0.00 0.00 66 1018.7
20260502045408 40 247 0.0 0.0 0.00 0.00 0.00 66 1018.7
20260502045326 40 247 0.0 0.0 0.00 0.00 0.00 66 1018.7
20260502044913 40 247 0.0 0.0 0.00 0.00 0.00 66 1018.7
20260502044714 40 247 0.0 0.0 0.00 0.00 0.00 67 1018.7
20260502044619 40 247 0.0 0.0 0.00 0.00 0.00 68 1018.6
20260502044612 40 247 0.0 0.0 0.00 0.00 0.00 67 1018.7
20260502044407 40 247 0.0 0.0 0.00 0.00 0.00 69 1018.7
20260502044355 40 247 0.0 0.0 0.00 0.00 0.00 69 1018.6
20260502044324 40 247 0.0 0.0 0.00 0.00 0.00 69 1018.7
20260502043913 40 247 0.0 0.0 0.00 0.00 0.00 68 1018.7
20260502043715 41 247 0.0 0.0 0.00 0.00 0.00 68 1018.7
20260502043613 41 247 0.0 0.0 0.00 0.00 0.00 68 1018.7
20260502043513 40 247 0.0 0.0 0.00 0.00 0.00 68 1018.7
20260502043408 41 247 0.0 0.0 0.00 0.00 0.00 66 1018.4
20260502043355 41 247 0.0 0.0 0.00 0.00 0.00 67 1018.6
20260502043324 41 247 0.0 0.0 0.00 0.00 0.00 66 1018.4
20260502043016 41 247 0.0 0.0 0.00 0.00 0.00 65 1018.6
20260502042714 41 247 0.0 0.0 0.00 0.00 0.00 64 1018.6
20260502042613 41 247 0.0 0.0 0.00 0.00 0.00 64 1018.6
20260502042513 41 247 0.0 0.0 0.00 0.00 0.00 64 1018.6
20260502042313 41 247 0.0 0.0 0.00 0.00 0.00 64 1018.6
20260502042114 41 247 0.0 0.0 0.00 0.00 0.00 64 1018.6
20260502041913 41 247 0.0 0.0 0.00 0.00 0.00 64 1018.6
20260502041713 41 247 0.0 0.0 0.00 0.00 0.00 64 1018.6
20260502041612 41 247 0.0 0.0 0.00 0.00 0.00 64 1018.7
20260502041513 41 247 0.0 0.0 0.00 0.00 0.00 63 1018.4
20260502041414 41 247 0.0 0.0 0.00 0.00 0.00 63 1018.6
20260502041111 41 247 0.0 0.0 0.00 0.00 0.00 64 1018.6
20260502040907 41 247 0.0 0.0 0.00 0.00 0.00 65 1018.7
20260502040705 41 247 0.0 0.0 0.00 0.00 0.00 65 1018.6
20260502040611 41 247 0.0 0.0 0.00 0.00 0.00 66 1018.6
20260502040601 41 247 0.0 0.0 0.00 0.00 0.00 66 1018.6
20260502040305 41 247 0.0 0.9 0.00 0.00 0.00 67 1018.7
20260502040109 41 247 0.0 0.9 0.00 0.00 0.00 67 1018.7
20260502040044 42 247 0.0 0.9 0.00 0.00 0.00 67 1018.7
20260502035845 42 247 0.0 0.9 0.00 0.00 0.00 68 1018.7
20260502035640 42 247 0.0 0.9 0.00 0.00 0.00 67 1018.7
20260502035608 42 247 0.0 0.9 0.00 0.00 0.00 68 1018.7
20260502035436 42 247 0.0 0.9 0.00 0.00 0.00 67 1018.7
20260502035237 42 247 0.0 0.9 0.00 0.00 0.00 67 1018.6
20260502035109 42 247 0.0 0.9 0.00 0.00 0.00 66 1018.6
20260502035037 42 247 0.0 0.9 0.00 0.00 0.00 66 1018.6
20260502034937 42 247 0.0 0.9 0.00 0.00 0.00 64 1018.6
20260502034612 42 247 0.0 0.9 0.00 0.00 0.00 62 1018.6
20260502034431 42 247 0.0 0.9 0.00 0.00 0.00 62 1018.7
20260502034233 42 247 0.0 0.9 0.00 0.00 0.00 62 1018.6
20260502034111 42 247 0.0 0.9 0.00 0.00 0.00 62 1018.7
20260502034032 42 247 0.0 0.9 0.00 0.00 0.00 62 1018.8
20260502033833 42 247 0.0 0.9 0.00 0.00 0.00 62 1018.6
20260502033611 42 247 0.0 0.9 0.00 0.00 0.00 63 1018.7
20260502033412 42 247 0.0 0.9 0.00 0.00 0.00 64 1018.8
20260502033211 42 247 0.0 0.9 0.00 0.00 0.00 65 1018.8
20260502033110 42 247 0.0 0.9 0.00 0.00 0.00 65 1018.8
20260502033011 42 247 0.0 0.9 0.00 0.00 0.00 64 1018.8
20260502032811 42 247 0.0 0.9 0.00 0.00 0.00 64 1018.8
20260502032610 43 247 0.0 0.9 0.00 0.00 0.00 64 1018.8
20260502032413 43 247 0.0 0.9 0.00 0.00 0.00 65 1018.8
20260502032314 43 247 0.0 0.9 0.00 0.00 0.00 65 1018.8
20260502032111 43 247 0.0 0.9 0.00 0.00 0.00 65 1018.8
20260502032013 43 247 0.0 0.9 0.00 0.00 0.00 65 1018.8
20260502031814 43 247 0.0 0.9 0.00 0.00 0.00 65 1018.8
20260502031613 43 247 0.0 0.9 0.00 0.00 0.00 65 1018.8
20260502031413 43 247 0.0 0.9 0.00 0.00 0.00 65 1018.8
20260502031214 43 247 0.0 0.9 0.00 0.00 0.00 64 1018.8
20260502031112 43 247 0.0 0.9 0.00 0.00 0.00 63 1018.8
20260502031015 43 247 0.0 0.9 0.00 0.00 0.00 63 1018.8
20260502030814 43 247 0.0 0.9 0.00 0.00 0.00 64 1018.7
20260502030719 43 247 0.0 0.9 0.00 0.00 0.00 65 1018.7
20260502030613 43 247 0.0 0.9 0.00 0.00 0.00 65 1018.7
20260502030413 43 247 0.0 0.9 0.00 0.00 0.00 65 1018.7
20260502030214 43 247 0.0 0.9 0.00 0.00 0.00 65 1018.8
20260502030117 43 247 0.0 0.9 0.00 0.00 0.00 64 1018.8
20260502030013 43 247 0.0 0.0 0.00 0.00 0.00 65 1018.8
20260502025814 43 247 0.0 0.9 0.00 0.00 0.00 65 1018.8
20260502025613 43 247 0.0 0.9 0.00 0.00 0.00 65 1018.8
20260502025413 43 247 0.0 0.9 0.00 0.00 0.00 65 1018.7
20260502025213 43 247 0.0 0.9 0.00 0.00 0.00 64 1018.7
20260502025123 43 247 0.0 0.9 0.00 0.00 0.00 65 1018.7
20260502025112 43 247 0.0 0.9 0.00 0.00 0.00 64 1018.7
20260502024908 43 247 0.0 0.0 0.00 0.00 0.00 65 1018.7
20260502024856 43 247 0.0 0.9 0.00 0.00 0.00 65 1018.6
20260502024826 43 247 0.0 0.0 0.00 0.00 0.00 65 1018.7
20260502024413 44 247 0.0 0.0 0.00 0.00 0.00 63 1018.7
20260502024214 44 247 0.0 0.0 0.00 0.00 0.00 63 1018.7
20260502024112 44 247 0.0 0.0 0.00 0.00 0.00 63 1018.7
20260502024014 44 247 0.0 0.0 0.00 0.00 0.00 63 1018.7
20260502023955 44 247 0.0 0.0 0.00 0.00 0.00 63 1018.7
20260502023902 44 247 0.0 0.0 0.00 0.00 0.00 61 1018.6
20260502023826 44 247 0.0 0.0 0.00 0.00 0.00 61 1018.6
20260502023415 44 247 0.0 0.0 0.00 0.00 0.00 61 1018.6
20260502023213 44 247 0.0 0.0 0.00 0.00 0.00 60 1018.6
20260502023112 44 247 0.0 0.0 0.00 0.00 0.00 60 1018.7
20260502023015 44 247 0.0 0.0 0.00 0.00 0.00 60 1018.6
20260502022907 44 247 0.0 0.9 0.00 0.00 0.00 59 1018.7
20260502022856 44 247 0.0 0.0 0.00 0.00 0.00 59 1018.7
20260502022828 44 247 0.0 0.9 0.00 0.00 0.00 59 1018.7
20260502022414 44 247 0.0 0.9 0.00 0.00 0.00 58 1018.6
20260502022315 45 247 0.0 0.9 0.00 0.00 0.00 58 1018.6
20260502022112 45 247 0.0 0.9 0.00 0.00 0.00 58 1018.7
20260502022013 45 247 0.0 0.9 0.00 0.00 0.00 58 1018.6
20260502021907 45 247 0.0 0.9 0.00 0.00 0.00 58 1018.6
20260502021858 45 247 0.0 0.9 0.00 0.00 0.00 58 1018.4
20260502021828 45 247 0.0 0.9 0.00 0.00 0.00 58 1018.6
20260502021413 45 247 0.0 0.0 0.00 0.00 0.00 56 1018.4
20260502021213 46 247 0.0 0.0 0.00 0.00 0.00 55 1018.6
20260502021113 46 247 0.0 0.0 0.00 0.00 0.00 56 1018.4
20260502021013 46 247 0.0 0.0 0.00 0.00 0.00 56 1018.4
20260502020815 47 247 0.0 0.0 0.00 0.00 0.00 53 1018.6
20260502020613 47 247 0.0 0.9 0.00 0.00 0.00 53 1018.3
20260502020413 47 247 0.0 0.9 0.00 0.00 0.00 53 1018.4
20260502020214 47 247 0.0 0.9 0.00 0.00 0.00 52 1018.3
20260502020118 47 247 0.0 0.9 0.00 0.00 0.00 51 1018.3
20260502020014 47 247 0.0 0.9 0.00 0.00 0.00 51 1018.4
20260502015913 47 247 0.0 0.9 0.00 0.00 0.00 51 1018.3
20260502015614 47 247 0.0 0.9 0.00 0.00 0.00 50 1018.3
20260502015413 47 247 0.0 0.9 0.00 0.00 0.00 50 1018.3
20260502015213 48 247 0.0 0.9 0.00 0.00 0.00 48 1018.3
20260502015112 48 247 0.0 0.9 0.00 0.00 0.00 48 1018.3
20260502015013 48 247 0.0 0.9 0.00 0.00 0.00 48 1018.2
20260502014814 48 247 0.0 0.9 0.00 0.00 0.00 48 1018.2
20260502014613 48 247 0.0 0.9 0.00 0.00 0.00 49 1018.2
20260502014413 49 247 0.0 0.0 0.00 0.00 0.00 47 1018.2
20260502014314 49 247 0.0 0.0 0.00 0.00 0.00 47 1018.1
20260502014112 49 247 0.0 0.0 0.00 0.00 0.00 46 1018.1
20260502014013 49 247 0.0 0.9 0.00 0.00 0.00 44 1018.2
20260502013815 49 247 0.0 0.9 0.00 0.00 0.00 44 1018.1
20260502013613 49 247 0.0 0.9 0.00 0.00 0.00 44 1018.1
20260502013424 49 247 0.0 0.9 0.00 0.00 0.00 44 1018.1
20260502013215 49 247 0.0 0.9 0.00 0.00 0.00 44 1018.1
20260502013112 49 247 0.0 0.9 0.00 0.00 0.00 43 1018.1
20260502013013 49 247 0.0 0.9 0.00 0.00 0.00 44 1018.0
20260502012815 50 247 0.0 0.9 0.00 0.00 0.00 44 1018.0
20260502012613 50 247 0.0 1.7 0.00 0.00 0.00 44 1018.0
20260502012413 50 247 0.0 1.7 0.00 0.00 0.00 44 1018.0
20260502012214 50 247 0.0 1.7 0.00 0.00 0.00 44 1018.0
20260502012112 50 247 0.0 1.7 0.00 0.00 0.00 43 1018.1
20260502012013 51 247 0.0 1.7 0.00 0.00 0.00 43 1018.1
20260502011914 51 247 0.0 1.7 0.00 0.00 0.00 43 1018.0
20260502011614 51 247 0.0 1.7 0.00 0.00 0.00 43 1018.0
20260502011413 51 247 0.0 1.7 0.00 0.00 0.00 43 1018.0
20260502011213 51 247 0.0 1.7 0.00 0.00 0.00 44 1018.0
20260502011112 51 247 0.0 2.6 0.00 0.00 0.00 44 1018.0
20260502011013 51 247 0.0 2.6 0.00 0.00 0.00 44 1018.0
20260502010814 51 247 0.0 2.6 0.00 0.00 0.00 41 1018.0
20260502010603 51 247 0.0 2.6 0.00 0.00 0.00 41 1018.0
20260502010412 51 247 0.0 2.6 0.00 0.00 0.00 40 1018.0
20260502010314 51 247 0.0 2.6 0.00 0.00 0.00 41 1018.0
20260502010012 52 247 0.0 2.6 0.00 0.00 0.00 40 1017.8
20260502005814 52 247 0.0 2.6 0.00 0.00 0.00 40 1017.9
20260502005614 52 247 0.0 2.6 0.00 0.00 0.00 40 1018.0
20260502005602 52 247 0.0 2.6 0.00 0.00 0.00 40 1017.9
20260502005413 52 247 0.0 2.6 0.00 0.00 0.00 40 1017.9
20260502005214 52 245 0.0 2.6 0.00 0.00 0.00 43 1018.0
20260502005103 52 247 0.0 2.6 0.00 0.00 0.00 41 1017.9
20260502005013 52 247 0.0 2.6 0.00 0.00 0.00 40 1017.9
20260502004855 52 245 0.0 2.6 0.00 0.00 0.00 41 1017.9
20260502004841 52 245 0.0 2.6 0.00 0.00 0.00 40 1018.0
20260502004413 52 245 0.0 2.6 0.00 0.00 0.00 40 1017.9
20260502004213 52 245 0.0 2.6 0.00 0.00 0.00 40 1018.0
20260502004049 52 245 0.0 2.6 0.00 0.00 0.00 40 1017.8
20260502004014 52 245 0.0 4.3 0.00 0.00 0.00 40 1017.8
20260502003940 53 245 0.0 4.3 0.00 0.00 0.00 44 1018.0
20260502003851 53 245 0.0 4.3 0.00 0.00 0.00 41 1018.0
20260502003811 53 245 0.0 4.3 0.00 0.00 0.00 41 1018.0
20260502003410 53 245 0.0 4.3 0.00 0.00 0.00 41 1018.0
20260502003209 53 245 0.0 4.3 0.00 0.00 0.00 40 1017.9
20260502003046 53 245 0.0 4.3 0.00 0.00 0.00 41 1018.0
20260502003010 53 213 0.0 3.5 0.00 0.00 0.00 39 1018.0
20260502002855 53 243 0.0 2.6 0.00 0.00 0.00 41 1018.0
20260502002836 53 213 0.0 3.5 0.00 0.00 0.00 40 1017.9
20260502002807 53 237 0.0 2.6 0.00 0.00 0.00 41 1018.0
20260502002410 53 243 0.0 3.5 0.00 0.00 0.00 41 1018.0
20260502002308 53 243 0.0 3.5 0.00 0.00 0.00 40 1018.0
20260502002047 53 243 0.0 3.5 0.00 0.00 0.00 40 1018.0
20260502002010 53 243 0.0 3.5 0.00 0.00 0.00 39 1017.9
20260502001812 53 243 0.0 3.5 0.00 0.00 0.00 42 1018.0
20260502001610 53 243 0.0 3.5 0.00 0.00 0.00 40 1017.9
20260502001544 53 245 0.0 3.5 0.00 0.00 0.00 40 1017.9
20260502001410 53 244 0.0 2.6 0.00 0.00 0.00 41 1017.8
20260502001212 53 244 0.0 2.6 0.00 0.00 0.00 42 1017.9
20260502001046 53 250 0.0 1.7 0.00 0.00 0.00 43 1017.9
20260502001013 53 250 0.0 1.7 0.00 0.00 0.00 43 1017.9
20260502000810 53 250 0.0 1.7 0.00 0.00 0.00 43 1017.9
20260502000604 53 250 0.0 1.7 0.00 0.00 0.00 43 1017.8
20260502000532 53 250 0.0 1.7 0.00 0.00 0.00 42 1017.8
20260502000403 53 250 0.0 1.7 0.00 0.00 0.00 40 1017.9
20260502000312 53 250 0.0 2.6 0.00 0.00 0.00 39 1017.9
20260502000031 54 59 0.0 2.6 0.00 0.00 0.00 40 1017.9
20260502000008 54 59 0.0 2.6 0.00 0.00 0.00 40 1017.8
20260501235807 54 59 0.0 2.6 0.00 0.00 0.00 40 1017.8
20260501235558 54 59 0.0 2.6 0.00 0.00 0.00 40 1017.7
20260501235530 54 59 0.0 2.6 0.00 0.00 0.00 40 1017.8
20260501235357 54 59 0.0 2.6 0.00 0.00 0.00 40 1017.8
20260501235155 54 59 0.0 2.6 0.00 0.00 0.00 40 1017.7
20260501235003 54 59 0.0 3.5 0.00 0.00 0.00 39 1017.8
20260501234957 54 59 0.0 3.5 0.00 0.00 0.00 39 1017.8
20260501234755 54 58 0.0 3.5 0.00 0.00 0.00 41 1017.8
20260501234656 54 51 0.0 3.5 0.00 0.00 0.00 41 1017.8
20260501234502 54 51 0.0 3.5 0.00 0.00 0.00 40 1017.8
20260501234356 54 51 0.0 3.5 0.00 0.00 0.00 40 1017.8
20260501234156 54 51 0.0 3.5 0.00 0.00 0.00 38 1017.9
20260501234005 54 69 0.0 2.6 0.00 0.00 0.00 42 1017.8
20260501233952 54 71 0.0 2.6 0.00 0.00 0.00 42 1017.9
20260501233746 53 48 0.0 2.6 0.00 0.00 0.00 42 1017.9
20260501233544 53 48 0.0 2.6 0.00 0.00 0.00 41 1017.9
20260501233502 53 48 0.0 2.6 0.00 0.00 0.00 41 1017.9
20260501233342 53 48 0.0 2.6 0.00 0.00 0.00 41 1017.9
20260501233138 53 48 0.0 3.5 0.00 0.00 0.00 41 1017.9
20260501233032 53 48 0.0 3.5 0.00 0.00 0.00 41 1017.8
20260501233001 53 48 0.0 3.5 0.00 0.00 0.00 41 1017.8
20260501232809 54 48 0.0 6.1 0.00 0.00 0.00 38 1017.8
20260501232755 53 48 0.0 3.5 0.00 0.00 0.00 39 1017.9
20260501232726 53 48 0.0 6.1 0.00 0.00 0.00 38 1017.8
20260501232335 54 41 0.0 6.1 0.00 0.00 0.00 38 1017.9
20260501232131 54 240 0.0 6.1 0.00 0.00 0.00 39 1017.9
20260501232032 55 248 0.0 6.1 0.00 0.00 0.00 38 1017.8
20260501232002 55 248 0.0 6.1 0.00 0.00 0.00 39 1017.9
20260501231804 55 243 0.0 10.4 0.00 0.00 0.00 39 1017.8
20260501231751 55 248 0.0 10.4 0.00 0.00 0.00 37 1017.9
20260501231720 55 228 0.0 10.4 0.00 0.00 0.00 39 1017.8
20260501231326 55 243 0.0 10.4 0.00 0.00 0.00 40 1017.7
20260501231119 55 241 0.0 10.4 0.00 0.00 0.00 38 1017.8
20260501231002 55 209 0.0 10.4 0.00 0.00 0.00 38 1017.8
20260501230918 55 200 0.0 10.4 0.00 0.00 0.00 39 1017.8
20260501230805 55 245 0.0 6.1 0.00 0.00 0.00 39 1017.8
20260501230748 55 226 0.0 6.1 0.00 0.00 0.00 36 1017.9
20260501230717 55 264 0.0 6.1 0.00 0.00 0.00 39 1017.8
20260501230401 55 245 0.0 6.1 0.00 0.00 0.00 39 1017.8
20260501230106 56 248 0.0 6.1 0.00 0.00 0.00 38 1017.9
20260501225959 56 240 0.0 5.2 0.00 0.00 0.00 40 1017.9
20260501225905 56 240 0.0 5.2 0.00 0.00 0.00 38 1017.9
20260501225810 56 226 0.0 4.3 0.00 0.00 0.00 38 1017.9
20260501225749 56 254 0.0 4.3 0.00 0.00 0.00 39 1017.9
20260501225718 56 226 0.0 4.3 0.00 0.00 0.00 38 1017.9
20260501225306 56 250 0.0 4.3 0.00 0.00 0.00 41 1017.9
20260501225100 56 274 0.0 4.3 0.00 0.00 0.00 41 1017.9
20260501225000 56 68 0.0 4.3 0.00 0.00 0.00 39 1017.9
20260501224857 56 68 0.0 4.3 0.00 0.00 0.00 39 1017.8
20260501224753 56 68 0.0 4.3 0.00 0.00 0.00 40 1017.9
20260501224500 55 28 0.0 4.3 0.00 0.00 0.00 38 1017.9
20260501224300 55 28 0.0 4.3 0.00 0.00 0.00 39 1018.0
20260501224058 55 37 0.0 4.3 0.00 0.00 0.00 39 1017.9
20260501223939 55 42 0.0 4.3 0.00 0.00 0.00 38 1017.9
20260501223859 56 209 0.0 5.2 0.00 0.00 0.00 40 1017.9
20260501223656 56 209 0.0 5.2 0.00 0.00 0.00 40 1017.8
20260501223459 55 209 0.0 5.2 0.00 0.00 0.00 39 1017.7
20260501223439 55 209 0.0 5.2 0.00 0.00 0.00 39 1017.8
20260501223352 55 209 0.0 5.2 0.00 0.00 0.00 39 1017.8
20260501223055 55 62 0.0 5.2 0.00 0.00 0.00 37 1017.8
20260501222939 55 48 0.0 5.2 0.00 0.00 0.00 37 1017.9
20260501222855 56 237 0.0 4.3 0.00 0.00 0.00 38 1017.9
20260501222655 56 203 0.0 4.3 0.00 0.00 0.00 38 1018.0
20260501222455 56 254 0.0 4.3 0.00 0.00 0.00 37 1017.9
20260501222440 56 254 0.0 4.3 0.00 0.00 0.00 37 1017.8
20260501222255 56 254 0.0 4.3 0.00 0.00 0.00 38 1017.9
20260501222056 56 78 0.0 4.3 0.00 0.00 0.00 40 1017.9
20260501221939 56 79 0.0 4.3 0.00 0.00 0.00 39 1017.9
20260501221856 55 80 0.0 4.3 0.00 0.00 0.00 38 1017.9
20260501221757 55 73 0.0 4.3 0.00 0.00 0.00 37 1017.9
20260501221640 52 66 0.0 3.5 0.00 0.00 0.00 41 1018.0
20260501221636 52 61 0.0 3.5 0.00 0.00 0.00 41 1018.0
20260501221631 55 351 0.0 4.3 0.00 0.00 0.00 39 1017.9
20260501221609 55 39 0.0 4.3 0.00 0.00 0.00 38 1017.9
20260501221558 55 39 0.0 4.3 0.00 0.00 0.00 39 1017.9
20260501221538 55 25 0.0 4.3 0.00 0.00 0.00 39 1018.0
20260501221510 55 45 0.0 4.3 0.00 0.00 0.00 39 1018.0
20260501221447 54 45 0.0 4.3 0.00 0.00 0.00 43 1017.9
20260501221440 54 45 0.0 4.3 0.00 0.00 0.00 43 1017.9
20260501221411 53 102 0.0 3.5 0.00 0.00 0.00 44 1018.0
20260501221330 52 66 0.0 3.5 0.00 0.00 0.00 44 1018.0
20260501221311 52 72 0.0 3.5 0.00 0.00 0.00 42 1018.0
20260501221242 52 72 0.0 3.5 0.00 0.00 0.00 41 1017.9
20260501221218 52 72 0.0 3.5 0.00 0.00 0.00 42 1018.0
20260501221209 52 72 0.0 3.5 0.00 0.00 0.00 42 1018.0
20260501221140 52 72 0.0 3.5 0.00 0.00 0.00 42 1017.9
20260501221113 52 7 0.0 1.7 0.00 0.00 0.00 43 1018.0
20260501221059 52 7 0.0 3.5 0.00 0.00 0.00 43 1018.0
20260501221038 52 7 0.0 3.5 0.00 0.00 0.00 43 1018.0
20260501221010 52 61 0.0 3.5 0.00 0.00 0.00 43 1017.9
20260501220947 52 61 0.0 3.5 0.00 0.00 0.00 41 1017.9
20260501220938 52 61 0.0 3.5 0.00 0.00 0.00 41 1017.9
20260501220847 52 58 0.0 3.5 0.00 0.00 0.00 41 1017.9
20260501220834 52 65 0.0 3.5 0.00 0.00 0.00 41 1017.9
20260501220814 52 51 0.0 3.5 0.00 0.00 0.00 42 1017.9
20260501220749 53 41 0.0 4.3 0.00 0.00 0.00 41 1018.0
20260501220724 53 38 0.0 4.3 0.00 0.00 0.00 41 1017.9
20260501220714 53 38 0.0 4.3 0.00 0.00 0.00 41 1017.9
20260501220647 53 78 0.0 4.3 0.00 0.00 0.00 41 1017.8
20260501220554 54 78 0.0 4.3 0.00 0.00 0.00 40 1017.9
20260501213100 54 34 0.0 4.3 0.00 0.00 0.00 41 1017.9
20260501212931 54 34 0.0 4.3 0.00 0.00 0.00 41 1017.9